Tchien Airport

Jump to: basic info | weather | comments

Related pages: nearby airports | nearby navaids | notams | map

Basic information (top)

Codes: THC GLTN
Location: lon 6.045650, lat -8.138723, elev 790 ft / 241 m msl
Status: small_airport
Scheduled airline service: no
Links: Wikipedia Mobile

Weather (top)

Current conditions for Man Airport 81nm (149km) NNE (rec'd 2013/11/21 04:00Z):

DIMN 210400Z NOL

Airport forecast for Roberts International Airport 133nm (247km) W (rec'd 2015/04/25 00:51Z):

TAF GLRB 252200Z 2600/2706 21009KT 9999 SCT015 FEW024CB 
      TEMPO 2601/2606 32007KT 7000 RA/TSRA FEW004 BKN012 FEW022CB 
      BECMG 2607/2609 05004KT 9999

Latest comments (top)

No comments yet for Tchien Airport

More... (top)

See also NOTAMs and nearby airports and navaids, or visit the Tchien Airport page at the main OurAirports website..